This demonstration page uses our WeatherBlox Daily Observations layout. Learn more.

Left ArrowRight Arrow

Hourly Observations for October 10, 2019

Temp ( °F °C ) Dew Point ( °F °C ) Humidity (%) Winds ( mph kmh ) Pressure ( in mb ) Visibility ( mi km ) Precip ( " mm )
12:53 am 00:53 Clear 51 10.6 50 10 96 96 Calm 30.14 1021 10 16 0.00 0.00
1:53 am 01:53 Clear 52 11.1 51 10.6 97 97 Calm 30.14 1021 10 16 0.00 0.00
2:53 am 02:53 Clear 51 10.6 50 10 96 96 Calm 30.14 1021 10 16 0.00 0.00
3:53 am 03:53 Clear 50 10 50 10 100 100 Calm 30.14 1021 10 16 0.00 0.00
4:53 am 04:53 Clear 50 10 49 9.4 96 96 Calm 30.14 1021 10 16 0.00 0.00
5:53 am 05:53 Clear 49 9.4 48 8.9 97 97 Calm 30.15 1021 10 16 0.00 0.00
6:53 am 06:53 Clear 49 9.4 48 8.9 97 97 Calm 30.16 1022 10 16 0.00 0.00
7:53 am 07:53 Sunny 48 8.9 48 8.9 100 100 Calm 30.16 1022 8 13 0.00 0.00
8:53 am 08:53 Sunny 55 12.8 53 11.7 93 93 Calm 30.16 1021 10 16 0.00 0.00
9:53 am 09:53 Sunny 63 17.2 57 13.9 81 81 Calm 30.17 1022 10 16 0.00 0.00
10:53 am 10:53 Sunny 68 20 58 14.4 70 70 E 5 7 30.18 1022 10 16 0.00 0.00
11:53 am 11:53 Sunny 72 22.2 59 15 64 64 ESE 3 6 30.17 1022 10 16 0.00 0.00
12:53 pm 12:53 Sunny 76 24.4 60 15.6 58 58 VRB 3 6 30.15 1021 10 16 0.00 0.00
1:53 pm 13:53 Mostly Sunny 79 26.1 59 15 50 50 VRB 5 7 30.12 1020 10 16 0.00 0.00
2:53 pm 14:53 Partly Cloudy 79 26.1 57 13.9 47 47 Calm 30.11 1020 10 16 0.00 0.00
3:53 pm 15:53 Mostly Cloudy 80 26.7 58 14.4 47 47 SE 6 9 30.08 1019 10 16 0.00 0.00
4:53 pm 16:53 Mostly Sunny 80 26.7 56 13.3 44 44 VRB 3 6 30.06 1018 10 16 0.00 0.00
5:53 pm 17:53 Sunny 78 25.6 57 13.9 48 48 VRB 5 7 30.06 1018 10 16 0.00 0.00
6:53 pm 18:53 Sunny 71 21.7 57 13.9 61 61 Calm 30.06 1018 10 16 0.00 0.00
7:53 pm 19:53 Clear 64 17.8 58 14.4 81 81 Calm 30.06 1018 10 16 0.00 0.00
8:53 pm 20:53 Clear 63 17.2 58 14.4 84 84 Calm 30.06 1018 10 16 0.00 0.00
9:53 pm 21:53 Mostly Clear 62 16.7 57 13.9 84 84 Calm 30.07 1018 10 16 0.00 0.00
10:53 pm 22:53 Clear 65 18.3 57 13.9 76 76 E 5 7 30.06 1018 10 16 0.00 0.00
11:53 pm 23:53 Clear 64 17.8 57 13.9 78 78 Calm 30.07 1018 10 16 0.00 0.00

Powered by AerisWeather